Location: アルンシュタイン
(50.0000°N, 10.0000°E)
Time: 15:11:40
(UTC+02:00)

Vanguard 1 - Pass Details

Date: 13 September 2024
Orbit: 649 x 3825 km, 34.3° (Epoch: 02 October)

Event Time Altitude Azimuth Distance (km) Brightness Sun altitude
Rises 12:20:07 0° 199° (SSW) 6,311 14.8 42.0°
Reaches altitude 10° 12:29:33 10° 168° (SSE) 4,272 14.5 42.5°
Maximum altitude 12:31:31 11° 158° (SSE) 3,992 14.3 42.6°
Drops below altitude 10° 12:33:20 10° 147° (SSE) 3,824 14.1 42.7°
Sets 12:39:23 0° 111° (ESE) 4,070 13.6 42.9°
